This demonstration page uses our WeatherBlox Daily Observations layout. Learn more.

Left ArrowRight Arrow

39.92423, -83.80882

Hourly Observations for March 26, 2021

Temp ( °F °C ) Dew Point ( °F °C ) Humidity (%) Winds ( mph kmh ) Pressure ( in mb ) Visibility ( mi km ) Precip ( " mm )
12:45 am 00:45 Cloudy with Nearby Thunderstorms 63 17 63 17 100 100 S 21 33 29.48 998 10 16 N/A
12:56 am 00:56 Cloudy with Nearby Thunderstorms 63 17.2 63 17.2 100 100 S 18 30 29.48 998 10 16 N/A
1:04 am 01:04 Cloudy with Light Rain 63 17 63 17 100 100 S 21 33 29.47 998 8 13 N/A
1:44 am 01:44 Mostly Cloudy 61 16 57 14 88 88 SW 20 31 29.51 999 10 16 N/A
1:56 am 01:56 Partly Cloudy 61 16.1 58 14.4 90 90 SW 21 33 29.51 999 10 16 N/A
2:34 am 02:34 Mostly Cloudy 61 16 57 14 88 88 SW 23 37 29.50 999 10 16 N/A
2:56 am 02:56 Mostly Cloudy 60 15.6 55 12.8 84 84 SW 23 37 29.51 999 10 16 N/A
3:32 am 03:32 Mostly Cloudy 59 15 52 11 77 77 SW 38 61 29.50 999 10 16 N/A
3:56 am 03:56 Mostly Clear 57 13.9 48 8.9 72 72 SW 35 56 29.54 1000 10 16 N/A
4:56 am 04:56 Cloudy 55 12.8 48 8.9 77 77 SW 37 59 29.60 1002 10 16 N/A
5:56 am 05:56 Mostly Cloudy 50 10 46 7.8 86 86 WSW 28 44 29.71 1006 10 16 N/A
6:56 am 06:56 Cloudy 49 9.4 46 7.8 90 90 W 29 46 29.79 1009 10 16 N/A
7:56 am 07:56 Cloudy 48 8.9 45 7.2 89 89 W 25 41 29.87 1011 10 16 N/A
8:56 am 08:56 Cloudy 49 9.4 45 7.2 86 86 WNW 21 33 29.92 1013 10 16 N/A
9:56 am 09:56 Cloudy 50 10 45 7.2 83 83 WNW 17 28 29.98 1015 10 16 N/A
10:56 am 10:56 Mostly Cloudy 53 11.7 47 8.3 80 80 W 15 24 30.01 1016 10 16 N/A
11:56 am 11:56 Mostly Cloudy 55 12.8 47 8.3 74 74 WNW 10 17 30.04 1017 10 16 N/A
12:56 pm 12:56 Cloudy 56 13.3 46 7.8 70 70 W 12 19 30.05 1018 10 16 N/A
1:16 pm 13:16 Partly Cloudy 57 14 46 8 67 67 WSW 13 20 30.05 1017 10 16 N/A
1:24 pm 13:24 Mostly Cloudy 57 14 46 8 67 67 VRB 5 7 30.06 1018 10 16 N/A
1:56 pm 13:56 Cloudy 58 14.4 46 7.8 65 65 WSW 7 11 30.06 1018 10 16 N/A
2:25 pm 14:25 Mostly Cloudy 57 14 46 8 67 67 W 12 19 30.07 1018 10 16 N/A
2:56 pm 14:56 Mostly Cloudy 57 13.9 46 7.8 67 67 SSW 9 15 30.06 1018 10 16 N/A
3:56 pm 15:56 Cloudy 57 13.9 46 7.8 67 67 W 12 19 30.06 1018 10 16 N/A
4:56 pm 16:56 Cloudy 57 13.9 47 8.3 69 69 W 8 13 30.07 1018 10 16 N/A
5:56 pm 17:56 Cloudy 56 13.3 47 8.3 72 72 W 7 11 30.09 1019 10 16 N/A
6:21 pm 18:21 Cloudy 55 13 48 9 77 77 W 8 13 30.09 1019 10 16 N/A
6:56 pm 18:56 Cloudy 55 12.8 48 8.9 77 77 W 8 13 30.11 1020 10 16 N/A
7:40 pm 19:40 Cloudy 54 12 48 9 82 82 W 10 17 30.11 1020 10 16 N/A
7:56 pm 19:56 Cloudy 54 12.2 49 9.4 83 83 W 8 13 30.12 1020 10 16 N/A
8:56 pm 20:56 Cloudy 53 11.7 49 9.4 86 86 WSW 5 7 30.12 1020 10 16 N/A
9:34 pm 21:34 Cloudy 54 12 50 10 88 88 W 6 9 30.12 1020 10 16 N/A
9:56 pm 21:56 Cloudy 52 11.1 50 10 93 93 W 5 7 30.14 1021 10 16 N/A
10:56 pm 22:56 Cloudy 52 11.1 49 9.4 89 89 W 6 9 30.14 1021 10 16 N/A
11:46 pm 23:46 Cloudy 52 11 46 8 82 82 WSW 5 7 30.14 1021 10 16 N/A
11:56 pm 23:56 Cloudy 51 10.6 46 7.8 83 83 W 5 7 30.14 1021 10 16 N/A

Powered by AerisWeather